Date String (YYYY-MM-DD hh:mm:ss) UTC,Instrument flags,absolute air pressure of the measurement (hPa),sample flow rate (lpm),inlet stack bypass flow (lpm),air temperature of the measurement (°C),ambient temperature measured by the external sensor (°C),aerosol sample conditioner tube jacket temperature (°C),OPC LED temperature (°C),internal box temperature (°C),relative humidity of the measurement (%),span deviation,mass concentration of particles derived from Lorenz-Mie calculation of OPC scattering (μg/m³),mass concentration of particles derived from Lorenz-Mie calculation of OPC scattering (μg/m³),mass concentration of particles derived from Lorenz-Mie calculation of OPC scattering (μg/m³)
DateTimeUTC,F1_M11,P_M11,Q1_M11,Q2_M11,T1_M11,T2_M11,T3_M11,T4_M11,T5_M11,U1_M11,ZSPAN_M11,X0_M11,X2_M11,X1_M11
2024-01-03 13:00:00,SystemResetWarning,0829.4,5.00,000.00,019.1,018.2,000.0,027.4,020.4,13.5,0000.0,0010.40,0004.76,0004.45
2024-01-03 13:01:00,SystemResetWarning,0829.4,5.00,000.00,019.1,018.2,000.0,027.4,020.4,13.4,0000.0,0010.19,0004.72,0004.43
2024-01-03 13:02:00,SystemResetWarning,0829.4,5.00,000.00,019.1,018.2,000.0,027.4,020.4,13.3,0000.0,0010.30,0004.71,0004.42
2024-01-03 13:03:00,SystemResetWarning,0829.4,5.01,000.00,019.1,018.2,000.0,027.4,020.4,13.3,0000.0,0010.44,0004.72,0004.41
2024-01-03 13:04:00,SystemResetWarning,0829.4,5.00,000.00,019.1,018.2,000.0,027.4,020.4,13.1,0000.0,0010.45,0004.73,0004.42
2024-01-03 13:05:00,SystemResetWarning,0829.4,5.00,000.00,019.1,018.1,000.0,027.4,020.3,12.9,0000.0,0010.34,0004.76,0004.44
2024-01-03 13:06:00,SystemResetWarning,0829.4,5.01,000.00,019.1,018.1,000.0,027.4,020.3,13.0,0000.0,0009.88,0004.78,0004.46
2024-01-03 13:07:00,SystemResetWarning,0829.4,5.01,000.00,019.1,018.1,000.0,027.4,020.3,13.2,0000.0,0009.28,0004.79,0004.49
2024-01-03 13:08:00,SystemResetWarning,0829.3,5.01,000.00,019.1,018.0,000.0,027.4,020.3,13.2,0000.0,0009.16,0004.79,0004.51
2024-01-03 13:09:00,SystemResetWarning,0829.3,5.00,000.00,019.1,018.0,000.0,027.4,020.3,13.2,0000.0,0009.25,0004.85,0004.55
2024-01-03 13:10:00,SystemResetWarning,0829.3,5.00,000.00,019.0,018.0,000.0,027.4,020.3,13.1,0000.0,0009.28,0004.90,0004.59
2024-01-03 13:11:00,SystemResetWarning,0829.3,5.00,000.00,019.0,018.0,000.0,027.4,020.3,13.2,0000.0,0008.56,0004.96,0004.62
2024-01-03 13:12:00,SystemResetWarning,0829.4,5.00,000.00,019.0,018.0,000.0,027.4,020.3,13.3,0000.0,0008.18,0004.98,0004.65
2024-01-03 13:13:00,SystemResetWarning,0829.4,5.00,000.00,019.0,018.0,000.0,027.4,020.3,13.3,0000.0,0008.07,0005.00,0004.67
2024-01-03 13:14:00,SystemResetWarning,0829.4,4.99,000.00,019.0,018.0,000.0,027.4,020.3,13.4,0000.0,0007.93,0005.01,0004.68
2024-01-03 13:15:00,SystemResetWarning,0829.4,4.99,000.00,019.0,018.0,000.0,027.4,020.3,13.4,0000.0,0008.01,0005.04,0004.68
2024-01-03 13:16:00,SystemResetWarning,0829.4,5.00,000.00,019.0,018.0,000.0,027.4,020.3,13.4,0000.0,0008.06,0005.01,0004.66
2024-01-03 13:17:00,SystemResetWarning,0829.4,5.00,000.00,019.0,018.0,000.0,027.4,020.3,13.3,0000.0,0007.99,0004.94,0004.60
2024-01-03 13:18:00,SystemResetWarning,0829.4,5.01,000.00,019.0,018.0,000.0,027.4,020.3,13.2,0000.0,0008.03,0004.89,0004.53
2024-01-03 13:19:00,SystemResetWarning,0829.5,5.00,000.00,019.0,018.0,000.0,027.4,020.2,12.9,0000.0,0008.23,0004.88,0004.51
2024-01-03 13:20:00,SystemResetWarning,0829.5,4.99,000.00,019.0,017.9,000.0,027.3,020.2,13.0,0000.0,0008.71,0004.86,0004.49
2024-01-03 13:21:00,SystemResetWarning,0829.6,5.00,000.00,018.9,017.9,000.0,027.3,020.2,13.1,0000.0,0008.87,0004.81,0004.45
2024-01-03 13:22:00,SystemResetWarning,0829.6,5.00,000.00,018.9,017.9,000.0,027.3,020.1,12.9,0000.0,0008.76,0004.76,0004.39
2024-01-03 13:23:00,SystemResetWarning,0829.6,4.99,000.00,018.9,017.9,000.0,027.3,020.1,12.5,0000.0,0008.77,0004.74,0004.35
2024-01-03 13:24:00,SystemResetWarning,0829.6,4.99,000.00,018.9,017.8,000.0,027.3,020.1,12.4,0000.0,0009.14,0004.72,0004.31
2024-01-03 13:25:00,SystemResetWarning,0829.6,5.01,000.00,018.9,017.8,000.0,027.3,020.1,12.5,0000.0,0009.33,0004.72,0004.31
2024-01-03 13:26:00,SystemResetWarning,0829.6,5.00,000.00,018.9,017.8,000.0,027.3,020.1,12.6,0000.0,0009.28,0004.70,0004.31
2024-01-03 13:27:00,SystemResetWarning,0829.6,5.00,000.00,018.9,017.8,000.0,027.3,020.0,12.7,0000.0,0009.15,0004.69,0004.31
2024-01-03 13:28:00,SystemResetWarning,0829.6,5.00,000.00,018.8,017.8,000.0,027.3,020.1,12.7,0000.0,0009.09,0004.73,0004.33
2024-01-03 13:29:00,SystemResetWarning,0829.7,5.01,000.00,018.8,017.7,000.0,027.3,020.0,12.7,0000.0,0009.10,0004.80,0004.38
2024-01-03 13:30:00,SystemResetWarning,0829.7,5.01,000.00,018.8,017.7,000.0,027.3,020.0,12.6,0000.0,0009.53,0004.80,0004.38
2024-01-03 13:31:00,SystemResetWarning,0829.7,4.99,000.00,018.8,017.7,000.0,027.2,020.0,12.7,0000.0,0008.99,0004.74,0004.34
2024-01-03 13:32:00,SystemResetWarning,0829.7,4.99,000.00,018.8,017.7,000.0,027.2,020.0,12.8,0000.0,0008.68,0004.69,0004.29
2024-01-03 13:33:00,SystemResetWarning,0829.7,5.00,000.00,018.8,017.7,000.0,027.2,020.0,12.9,0000.0,0008.74,0004.67,0004.28
2024-01-03 13:34:00,SystemResetWarning,0829.7,5.00,000.00,018.8,017.7,000.0,027.2,020.0,13.0,0000.0,0008.81,0004.65,0004.27
2024-01-03 13:35:00,SystemResetWarning,0829.7,5.01,000.00,018.8,017.7,000.0,027.2,020.0,13.3,0000.0,0008.30,0004.55,0004.20
2024-01-03 13:36:00,SystemResetWarning,0829.7,5.01,000.00,018.8,017.7,000.0,027.2,020.0,13.5,0000.0,0007.95,0004.45,0004.10
2024-01-03 13:37:00,SystemResetWarning,0829.7,5.00,000.00,018.8,017.7,000.0,027.2,020.0,13.3,0000.0,0007.92,0004.38,0004.01
2024-01-03 13:38:00,SystemResetWarning,0829.7,4.99,000.00,018.8,017.7,000.0,027.2,020.0,13.1,0000.0,0007.99,0004.29,0003.95
2024-01-03 13:39:00,SystemResetWarning,0829.7,5.00,000.00,018.8,017.7,000.0,027.2,020.0,13.1,0000.0,0008.35,0004.22,0003.89
2024-01-03 13:40:00,SystemResetWarning,0829.7,5.01,000.00,018.7,017.6,000.0,027.2,020.0,13.0,0000.0,0008.30,0004.14,0003.82
2024-01-03 13:41:00,SystemResetWarning,0829.7,5.01,000.00,018.7,017.6,000.0,027.2,020.0,13.2,0000.0,0007.63,0004.06,0003.77
2024-01-03 13:42:00,SystemResetWarning,0829.7,5.00,000.00,018.7,017.6,000.0,027.2,020.0,13.2,0000.0,0007.66,0004.04,0003.75
2024-01-03 13:43:00,SystemResetWarning,0829.7,5.00,000.00,018.7,017.6,000.0,027.2,020.0,13.1,0000.0,0007.77,0004.06,0003.75
2024-01-03 13:44:00,SystemResetWarning,0829.7,5.00,000.00,018.7,017.6,000.0,027.2,020.0,12.8,0000.0,0008.07,0004.06,0003.74
2024-01-03 13:45:00,SystemResetWarning,0829.7,5.00,000.00,018.7,017.7,000.0,027.1,020.0,13.1,0000.0,0007.97,0004.05,0003.73
2024-01-03 13:46:00,SystemResetWarning,0829.7,5.01,000.00,018.7,017.7,000.0,027.1,020.0,13.1,0000.0,0008.10,0004.12,0003.79
2024-01-03 13:47:00,SystemResetWarning,0829.7,5.01,000.00,018.7,017.7,000.0,027.1,020.0,13.1,0000.0,0008.65,0004.20,0003.89
2024-01-03 13:48:00,SystemResetWarning,0829.7,5.00,000.00,018.7,017.7,000.0,027.1,020.0,13.1,0000.0,0009.95,0004.32,0003.99
2024-01-03 13:49:00,SystemResetWarning,0829.7,5.00,000.00,018.7,017.7,000.0,027.1,020.0,13.2,0000.0,0010.15,0004.42,0004.05
2024-01-03 13:50:00,SystemResetWarning,0829.7,5.00,000.00,018.7,017.8,000.0,027.1,020.0,13.3,0000.0,0009.73,0004.47,0004.09
2024-01-03 13:51:00,SystemResetWarning,0829.7,4.99,000.00,018.7,017.8,000.0,027.1,020.0,13.2,0000.0,0009.70,0004.52,0004.13
2024-01-03 13:52:00,SystemResetWarning,0829.7,5.00,000.00,018.7,017.7,000.0,027.1,020.0,12.9,0000.0,0009.77,0004.55,0004.15
2024-01-03 13:53:00,SystemResetWarning,0829.7,5.00,000.00,018.7,017.7,000.0,027.1,020.0,12.8,0000.0,0009.76,0004.59,0004.20
2024-01-03 13:54:00,SystemResetWarning,0829.7,5.02,000.00,018.7,017.7,000.0,027.1,020.0,12.8,0000.0,0009.71,0004.63,0004.25
2024-01-03 13:55:00,SystemResetWarning,0829.7,5.00,000.00,018.7,017.7,000.0,027.1,020.0,12.7,0000.0,0009.62,0004.67,0004.30
2024-01-03 13:56:00,SystemResetWarning,0829.7,4.99,000.00,018.7,017.7,000.0,027.1,020.0,12.8,0000.0,0009.83,0004.66,0004.29
2024-01-03 13:57:00,SystemResetWarning,0829.7,4.99,000.00,018.7,017.7,000.0,027.1,020.0,12.8,0000.0,0009.78,0004.66,0004.29
2024-01-03 13:58:00,SystemResetWarning,0829.7,5.00,000.00,018.7,017.7,000.0,027.1,020.0,13.0,0000.0,0010.16,0004.66,0004.28
2024-01-03 13:59:00,SystemResetWarning,0829.7,5.00,000.00,018.7,017.7,000.0,027.1,020.0,13.3,0000.0,0009.25,0004.61,0004.25
